Time,TemperatureF,DewpointF,PressureIn,WindDirection,WindDirectionDegrees,WindSpeedMPH,WindSpeedGustMPH,Humidity,HourlyPrecipIn,Conditions,Clouds,dailyrainin,SolarRadiationWatts/m^2,SoftwareType,DateUTC
2013-01-28 00:02:00,27.0,26.0,-100.00,ESE,114,3.0,7.0,96,0.03,,,0.20,0.000000,,2013-01-28 06:02:00,
2013-01-28 00:10:00,27.0,26.0,-100.00,SE,132,3.0,6.0,97,0.04,,,0.24,0.000000,,2013-01-28 06:10:00,
2013-01-28 00:32:00,27.0,26.0,-100.00,SE,132,3.0,6.0,97,0.04,,,0.24,0.000000,,2013-01-28 06:32:00,
2013-01-28 00:42:00,27.0,26.0,-100.00,SE,132,3.0,6.0,97,0.04,,,0.24,0.000000,,2013-01-28 06:42:00,
2013-01-28 00:52:00,27.0,26.0,-100.00,SE,132,3.0,6.0,97,0.04,,,0.24,0.000000,,2013-01-28 06:52:00,
2013-01-28 01:02:00,27.0,26.0,-100.00,SE,132,3.0,6.0,97,0.04,,,0.24,0.000000,,2013-01-28 07:02:00,
2013-01-28 01:10:00,27.0,26.0,-100.00,East,91,2.0,4.0,97,0.03,,,0.27,0.000000,,2013-01-28 07:10:00,
2013-01-28 01:32:00,27.0,26.0,-100.00,East,91,2.0,4.0,97,0.03,,,0.27,0.000000,,2013-01-28 07:32:00,
2013-01-28 01:42:00,27.0,26.0,-100.00,East,91,2.0,4.0,97,0.03,,,0.27,0.000000,,2013-01-28 07:42:00,
2013-01-28 01:52:00,27.0,26.0,-100.00,East,91,2.0,4.0,97,0.03,,,0.27,0.000000,,2013-01-28 07:52:00,
2013-01-28 02:01:00,27.0,26.0,-100.00,East,91,2.0,4.0,97,0.03,,,0.27,0.000000,,2013-01-28 08:01:00,
2013-01-28 02:10:00,27.0,27.0,-100.00,NNE,23,1.0,3.0,98,0.04,,,0.31,0.000000,,2013-01-28 08:10:00,
2013-01-28 02:32:00,27.0,27.0,-100.00,NNE,23,1.0,3.0,98,0.04,,,0.31,0.000000,,2013-01-28 08:32:00,
2013-01-28 02:42:00,27.0,27.0,-100.00,NNE,23,1.0,3.0,98,0.04,,,0.31,0.000000,,2013-01-28 08:42:00,
2013-01-28 02:52:00,27.0,27.0,-100.00,NNE,23,1.0,3.0,98,0.04,,,0.31,0.000000,,2013-01-28 08:52:00,
2013-01-28 03:02:00,27.0,27.0,-100.00,NNE,23,1.0,3.0,98,0.04,,,0.31,0.000000,,2013-01-28 09:02:00,
2013-01-28 03:10:00,27.0,27.0,-100.00,NNE,18,0.0,2.0,98,0.04,,,0.35,0.000000,,2013-01-28 09:10:00,
2013-01-28 03:32:00,27.0,27.0,-100.00,NNE,18,0.0,2.0,98,0.04,,,0.35,0.000000,,2013-01-28 09:32:00,
2013-01-28 03:42:00,27.0,27.0,-100.00,NNE,18,0.0,2.0,98,0.04,,,0.35,0.000000,,2013-01-28 09:42:00,
2013-01-28 03:52:00,27.0,27.0,-100.00,NNE,18,0.0,2.0,98,0.04,,,0.35,0.000000,,2013-01-28 09:52:00,
2013-01-28 04:02:00,27.0,27.0,-100.00,NNE,18,0.0,2.0,98,0.04,,,0.35,0.000000,,2013-01-28 10:02:00,
2013-01-28 04:10:00,27.0,27.0,-100.00,North,359,1.0,2.0,98,0.01,,,0.36,0.000000,,2013-01-28 10:10:00,
2013-01-28 04:32:00,27.0,27.0,-100.00,North,359,1.0,2.0,98,0.01,,,0.36,0.000000,,2013-01-28 10:32:00,
2013-01-28 04:42:00,27.0,27.0,-100.00,North,359,1.0,2.0,98,0.01,,,0.36,0.000000,,2013-01-28 10:42:00,
2013-01-28 04:52:00,27.0,27.0,-100.00,North,359,1.0,2.0,98,0.01,,,0.36,0.000000,,2013-01-28 10:52:00,
2013-01-28 05:02:00,27.0,27.0,-100.00,North,359,1.0,2.0,98,0.01,,,0.36,0.000000,,2013-01-28 11:02:00,
2013-01-28 05:10:00,26.0,25.0,-100.00,NNE,16,2.0,3.0,97,0.00,,,0.36,0.000000,,2013-01-28 11:10:00,
2013-01-28 05:32:00,26.0,25.0,-100.00,NNE,16,2.0,3.0,97,0.00,,,0.36,0.000000,,2013-01-28 11:32:00,
2013-01-28 05:42:00,26.0,25.0,-100.00,NNE,16,2.0,3.0,97,0.00,,,0.36,0.000000,,2013-01-28 11:42:00,
2013-01-28 05:52:00,26.0,25.0,-100.00,NNE,16,2.0,3.0,97,0.00,,,0.36,0.000000,,2013-01-28 11:52:00,
2013-01-28 06:03:00,26.0,25.0,-100.00,NNE,16,2.0,3.0,97,0.00,,,0.36,0.000000,,2013-01-28 12:03:00,
2013-01-28 06:10:00,26.0,25.0,-100.00,WNW,290,0.0,3.0,97,0.00,,,0.36,0.000000,,2013-01-28 12:10:00,
2013-01-28 06:33:00,26.0,25.0,-100.00,WNW,290,0.0,3.0,97,0.00,,,0.36,0.000000,,2013-01-28 12:33:00,
2013-01-28 06:42:00,26.0,25.0,-100.00,WNW,290,0.0,3.0,97,0.00,,,0.36,0.000000,,2013-01-28 12:42:00,
2013-01-28 06:52:00,26.0,25.0,-100.00,WNW,290,0.0,3.0,97,0.00,,,0.36,0.000000,,2013-01-28 12:52:00,
2013-01-28 07:03:00,26.0,25.0,-100.00,WNW,290,0.0,3.0,97,0.00,,,0.36,0.000000,,2013-01-28 13:03:00,
2013-01-28 07:10:00,26.0,25.0,-100.00,NW,325,2.0,4.0,97,0.00,,,0.36,0.000000,,2013-01-28 13:10:00,
2013-01-28 07:33:00,26.0,25.0,-100.00,NW,325,2.0,4.0,97,0.00,,,0.36,0.000000,,2013-01-28 13:33:00,
2013-01-28 07:43:00,26.0,25.0,-100.00,NW,325,2.0,4.0,97,0.00,,,0.36,0.000000,,2013-01-28 13:43:00,
2013-01-28 07:53:00,26.0,25.0,-100.00,NW,325,2.0,4.0,97,0.00,,,0.36,0.000000,,2013-01-28 13:53:00,
2013-01-28 08:03:00,26.0,25.0,-100.00,NW,325,2.0,4.0,97,0.00,,,0.36,0.000000,,2013-01-28 14:03:00,
2013-01-28 08:10:00,26.0,25.0,-100.00,WNW,302,2.0,4.0,96,0.00,,,0.36,2.000000,,2013-01-28 14:10:00,
2013-01-28 08:43:00,26.0,25.0,-100.00,WNW,302,2.0,4.0,96,0.00,,,0.36,2.000000,,2013-01-28 14:43:00,
2013-01-28 08:53:00,26.0,25.0,-100.00,WNW,302,2.0,4.0,96,0.00,,,0.36,2.000000,,2013-01-28 14:53:00,
2013-01-28 09:03:00,26.0,25.0,-100.00,WNW,302,2.0,4.0,96,0.00,,,0.36,2.000000,,2013-01-28 15:03:00,
2013-01-28 09:10:00,28.0,26.0,-100.00,NNW,335,4.0,6.0,93,0.00,,,0.36,13.000000,,2013-01-28 15:10:00,
2013-01-28 09:33:00,28.0,26.0,-100.00,NNW,335,4.0,6.0,93,0.00,,,0.36,13.000000,,2013-01-28 15:33:00,
2013-01-28 09:43:00,28.0,26.0,-100.00,NNW,335,4.0,6.0,93,0.00,,,0.36,13.000000,,2013-01-28 15:43:00,
2013-01-28 09:53:00,28.0,26.0,-100.00,NNW,335,4.0,6.0,93,0.00,,,0.36,13.000000,,2013-01-28 15:53:00,
2013-01-28 10:04:00,28.0,26.0,-100.00,NNW,335,4.0,6.0,93,0.00,,,0.36,13.000000,,2013-01-28 16:04:00,
2013-01-28 10:10:00,30.0,27.0,-100.00,North,352,4.0,6.0,88,0.00,,,0.36,24.000000,,2013-01-28 16:10:00,
2013-01-28 10:33:00,30.0,27.0,-100.00,North,352,4.0,6.0,88,0.00,,,0.36,24.000000,,2013-01-28 16:33:00,
2013-01-28 10:43:00,30.0,27.0,-100.00,North,352,4.0,6.0,88,0.00,,,0.36,24.000000,,2013-01-28 16:43:00,
2013-01-28 10:53:00,30.0,27.0,-100.00,North,352,4.0,6.0,88,0.00,,,0.36,24.000000,,2013-01-28 16:53:00,
2013-01-28 11:02:00,30.0,27.0,-100.00,North,352,4.0,6.0,88,0.00,,,0.36,24.000000,,2013-01-28 17:02:00,
2013-01-28 11:10:00,34.0,29.0,-100.00,NE,56,3.0,7.0,81,0.00,,,0.36,30.000000,,2013-01-28 17:10:00,
2013-01-28 11:33:00,34.0,29.0,-100.00,NE,56,3.0,7.0,81,0.00,,,0.36,30.000000,,2013-01-28 17:33:00,
2013-01-28 11:42:00,34.0,29.0,-100.00,NE,56,3.0,7.0,81,0.00,,,0.36,30.000000,,2013-01-28 17:42:00,
2013-01-28 11:53:00,34.0,29.0,-100.00,NE,56,3.0,7.0,81,0.00,,,0.36,30.000000,,2013-01-28 17:53:00,
2013-01-28 12:03:00,34.0,29.0,-100.00,NE,56,3.0,7.0,81,0.00,,,0.36,30.000000,,2013-01-28 18:03:00,
2013-01-28 12:10:00,35.0,27.0,-100.00,North,353,3.0,6.0,72,0.00,,,0.36,78.000000,,2013-01-28 18:10:00,
2013-01-28 12:33:00,35.0,27.0,-100.00,North,353,3.0,6.0,72,0.00,,,0.36,78.000000,,2013-01-28 18:33:00,
2013-01-28 12:43:00,35.0,27.0,-100.00,North,353,3.0,6.0,72,0.00,,,0.36,78.000000,,2013-01-28 18:43:00,
2013-01-28 12:52:00,35.0,27.0,-100.00,North,353,3.0,6.0,72,0.00,,,0.36,78.000000,,2013-01-28 18:52:00,
2013-01-28 13:02:00,35.0,27.0,-100.00,North,353,3.0,6.0,72,0.00,,,0.36,78.000000,,2013-01-28 19:02:00,
2013-01-28 13:10:00,37.0,28.0,-100.00,NE,36,2.0,6.0,71,0.00,,,0.36,194.000000,,2013-01-28 19:10:00,
2013-01-28 13:43:00,37.0,28.0,-100.00,NE,36,2.0,6.0,71,0.00,,,0.36,194.000000,,2013-01-28 19:43:00,
2013-01-28 13:52:00,37.0,28.0,-100.00,NE,36,2.0,6.0,71,0.00,,,0.36,194.000000,,2013-01-28 19:52:00,
2013-01-28 14:02:00,37.0,28.0,-100.00,NE,36,2.0,6.0,71,0.00,,,0.36,194.000000,,2013-01-28 20:02:00,
2013-01-28 14:10:00,42.0,31.0,-100.00,SSE,168,3.0,6.0,66,0.00,,,0.36,237.000000,,2013-01-28 20:10:00,
2013-01-28 14:33:00,42.0,31.0,-100.00,SSE,168,3.0,6.0,66,0.00,,,0.36,237.000000,,2013-01-28 20:33:00,
2013-01-28 14:43:00,42.0,31.0,-100.00,SSE,168,3.0,6.0,66,0.00,,,0.36,237.000000,,2013-01-28 20:43:00,
2013-01-28 14:53:00,42.0,31.0,-100.00,SSE,168,3.0,6.0,66,0.00,,,0.36,237.000000,,2013-01-28 20:53:00,
2013-01-28 15:03:00,42.0,31.0,-100.00,SSE,168,3.0,6.0,66,0.00,,,0.36,237.000000,,2013-01-28 21:03:00,
2013-01-28 15:10:00,39.0,27.0,-100.00,South,184,2.0,5.0,63,0.00,,,0.36,199.000000,,2013-01-28 21:10:00,
2013-01-28 15:33:00,39.0,27.0,-100.00,South,184,2.0,5.0,63,0.00,,,0.36,199.000000,,2013-01-28 21:33:00,
2013-01-28 15:43:00,39.0,27.0,-100.00,South,184,2.0,5.0,63,0.00,,,0.36,199.000000,,2013-01-28 21:43:00,
2013-01-28 15:53:00,39.0,27.0,-100.00,South,184,2.0,5.0,63,0.00,,,0.36,199.000000,,2013-01-28 21:53:00,
2013-01-28 16:02:00,39.0,27.0,-100.00,South,184,2.0,5.0,63,0.00,,,0.36,199.000000,,2013-01-28 22:02:00,
2013-01-28 16:10:00,34.0,28.0,-100.00,WSW,256,0.0,5.0,78,0.00,,,-99.99,69.000000,,2013-01-28 22:10:00,
2013-01-28 16:33:00,34.0,28.0,-100.00,WSW,256,0.0,5.0,78,0.00,,,-99.99,69.000000,,2013-01-28 22:33:00,
2013-01-28 16:42:00,34.0,28.0,-100.00,WSW,256,0.0,5.0,78,0.00,,,-99.99,69.000000,,2013-01-28 22:42:00,
2013-01-28 16:52:00,34.0,28.0,-100.00,WSW,256,0.0,5.0,78,0.00,,,-99.99,69.000000,,2013-01-28 22:52:00,
2013-01-28 17:02:00,34.0,28.0,-100.00,WSW,256,0.0,5.0,78,0.00,,,-99.99,69.000000,,2013-01-28 23:02:00,
2013-01-28 17:10:00,28.0,27.0,-100.00,ENE,78,0.0,2.0,94,0.00,,,0.31,11.000000,,2013-01-28 23:10:00,
2013-01-28 17:33:00,28.0,27.0,-100.00,ENE,78,0.0,2.0,94,0.00,,,0.31,11.000000,,2013-01-28 23:33:00,
2013-01-28 17:42:00,28.0,27.0,-100.00,ENE,78,0.0,2.0,94,0.00,,,0.31,11.000000,,2013-01-28 23:42:00,
2013-01-28 17:53:00,28.0,27.0,-100.00,ENE,78,0.0,2.0,94,0.00,,,0.31,11.000000,,2013-01-28 23:53:00,
2013-01-28 18:02:00,28.0,27.0,-100.00,ENE,78,0.0,2.0,94,0.00,,,0.31,11.000000,,2013-01-29 00:02:00,
2013-01-28 18:10:00,25.0,24.0,-100.00,NNE,28,0.0,1.0,97,0.00,,,0.29,0.000000,,2013-01-29 00:10:00,
2013-01-28 18:33:00,25.0,24.0,-100.00,NNE,28,0.0,1.0,97,0.00,,,0.29,0.000000,,2013-01-29 00:33:00,
2013-01-28 18:42:00,25.0,24.0,-100.00,NNE,28,0.0,1.0,97,0.00,,,0.29,0.000000,,2013-01-29 00:42:00,
2013-01-28 18:52:00,25.0,24.0,-100.00,NNE,28,0.0,1.0,97,0.00,,,0.29,0.000000,,2013-01-29 00:52:00,
2013-01-28 19:02:00,25.0,24.0,-100.00,NNE,28,0.0,1.0,97,0.00,,,0.29,0.000000,,2013-01-29 01:02:00,
2013-01-28 19:10:00,27.0,27.0,-100.00,SE,135,3.0,6.0,98,0.00,,,0.27,0.000000,,2013-01-29 01:10:00,
2013-01-28 19:32:00,27.0,27.0,-100.00,SE,135,3.0,6.0,98,0.00,,,0.27,0.000000,,2013-01-29 01:32:00,
2013-01-28 19:42:00,27.0,27.0,-100.00,SE,135,3.0,6.0,98,0.00,,,0.27,0.000000,,2013-01-29 01:42:00,
2013-01-28 19:53:00,27.0,27.0,-100.00,SE,135,3.0,6.0,98,0.00,,,0.27,0.000000,,2013-01-29 01:53:00,
2013-01-28 20:02:00,27.0,27.0,-100.00,SE,135,3.0,6.0,98,0.00,,,0.27,0.000000,,2013-01-29 02:02:00,
2013-01-28 20:10:00,28.0,28.0,-100.00,ESE,121,3.0,10.0,99,0.00,,,0.25,0.000000,,2013-01-29 02:10:00,
2013-01-28 20:42:00,28.0,28.0,-100.00,ESE,121,3.0,10.0,99,0.00,,,0.25,0.000000,,2013-01-29 02:42:00,
2013-01-28 20:53:00,28.0,28.0,-100.00,ESE,121,3.0,10.0,99,0.00,,,0.25,0.000000,,2013-01-29 02:53:00,
2013-01-28 21:03:00,28.0,28.0,-100.00,ESE,121,3.0,10.0,99,0.00,,,0.25,0.000000,,2013-01-29 03:03:00,
2013-01-28 21:10:00,29.0,29.0,-100.00,SSE,155,5.0,12.0,98,0.00,,,0.22,0.000000,,2013-01-29 03:10:00,
2013-01-28 21:32:00,29.0,29.0,-100.00,SSE,155,5.0,12.0,98,0.00,,,0.22,0.000000,,2013-01-29 03:32:00,
2013-01-28 21:42:00,29.0,29.0,-100.00,SSE,155,5.0,12.0,98,0.00,,,0.22,0.000000,,2013-01-29 03:42:00,
2013-01-28 21:53:00,29.0,29.0,-100.00,SSE,155,5.0,12.0,98,0.00,,,0.22,0.000000,,2013-01-29 03:53:00,
2013-01-28 22:02:00,29.0,29.0,-100.00,SSE,155,5.0,12.0,98,0.00,,,0.22,0.000000,,2013-01-29 04:02:00,
2013-01-28 22:10:00,29.0,28.0,-100.00,SE,139,4.0,11.0,96,0.00,,,0.19,0.000000,,2013-01-29 04:10:00,
2013-01-28 22:32:00,29.0,28.0,-100.00,SE,139,4.0,11.0,96,0.00,,,0.19,0.000000,,2013-01-29 04:32:00,
2013-01-28 22:42:00,29.0,28.0,-100.00,SE,139,4.0,11.0,96,0.00,,,0.19,0.000000,,2013-01-29 04:42:00,
2013-01-28 22:52:00,29.0,28.0,-100.00,SE,139,4.0,11.0,96,0.00,,,0.19,0.000000,,2013-01-29 04:52:00,
2013-01-28 23:03:00,29.0,28.0,-100.00,SE,139,4.0,11.0,96,0.00,,,0.19,0.000000,,2013-01-29 05:03:00,
2013-01-28 23:10:00,29.0,28.0,-100.00,South,174,3.0,10.0,96,0.00,,,0.16,0.000000,,2013-01-29 05:10:00,
2013-01-28 23:32:00,29.0,28.0,-100.00,South,174,3.0,10.0,96,0.00,,,0.16,0.000000,,2013-01-29 05:32:00,
2013-01-28 23:43:00,29.0,28.0,-100.00,South,174,3.0,10.0,96,0.00,,,0.16,0.000000,,2013-01-29 05:43:00,
2013-01-28 23:52:00,29.0,28.0,-100.00,South,174,3.0,10.0,96,0.00,,,0.16,0.000000,,2013-01-29 05:52:00,